Gainesville, FL

2:26 PM EST on February 23, 2017 (GMT -0500)
Gainesville Regional

Weather History for KGNV - March, 2014

Change the Weather History Date:

Wednesday, March 12, 2014

  Actual Average Record
Temperature  
Mean Temperature 71 °F 62 °F  
Max Temperature 80 °F 74 °F 89 °F (1974)
Min Temperature 61 °F 49 °F 32 °F (1969)
Degree Days  
Heating Degree Days 0 5  
Month to date heating degree days 86 68  
Since 1 July heating degree days 996 1102  
Cooling Degree Days 6 2  
Month to date cooling degree days 6 18  
Year to date cooling degree days 43 50  
Growing Degree Days 19 (Base 50)    
Moisture  
Dew Point 60 °F    
Average Humidity 72    
Maximum Humidity 93    
Minimum Humidity 50    
Precipitation  
Precipitation 0.01 in 0.14 in 2.51 in (1953)
Month to date precipitation 1.02 1.79  
Year to date precipitation 10.59 8.30  
Snow  
Snow 0.00 in 0.00 in 0.00 in ()
Month to date snowfall 0.0 0.0  
Since 1 July snowfall 0.0 0.0  
Snow Depth 0.00 in    
Sea Level Pressure  
Sea Level Pressure 29.76 in    
Wind  
Wind Speed 13 mph (WSW)    
Max Wind Speed 26 mph    
Max Gust Speed 35 mph    
Visibility 10 miles    
Events Rain    
T = Trace of Precipitation, MM = Missing Value Source: NWS Daily Summary

Daily Weather History Graph

Daily Weather History Graph

Search for Another Location

Airport or City:

Trip Planner

Search our weather history database for the weather conditions in past years. The results will help you decide how hot, cold, wet, or windy it might be!

Date:

Astronomy

Mar. 12, 2014 Rise Set
Actual Time 7:42 AM EDT 7:35 PM EDT
Civil Twilight 7:18 AM EDT 7:59 PM EDT
Nautical Twilight 6:50 AM EDT 8:27 PM EDT
Astronomical Twilight 6:23 AM EDT 8:54 PM EDT
Moon 4:17 PM EDT (3/12) 4:59 AM EDT (3/12)
Length of Visible Light 12h 40m
Length of Day
11h 53m
Waxing Gibbous, 85% of the Moon is Illuminated
Mar 12
Waxing Gibbous
Mar 16
Full
Mar 23
Last Quarter
Mar 30
New
Apr 7
First Quarter

Hourly Weather History & Observations

Time (EDT) Temp. Dew Point Humidity Pressure Visibility Wind Dir Wind Speed Gust Speed Precip Events Conditions
12:53 AM 63.0 °F 57.9 °F 84% 29.82 in 10.0 mi SSW 3.5 mph - 0.00 in   Mostly Cloudy
1:53 AM 62.1 °F 57.9 °F 86% 29.80 in 10.0 mi SSE 4.6 mph - 0.00 in   Mostly Cloudy
2:53 AM 62.1 °F 57.9 °F 86% 29.76 in 10.0 mi ESE 3.5 mph - 0.00 in Rain Light Rain
3:53 AM 62.1 °F 60.1 °F 93% 29.73 in 10.0 mi South 5.8 mph - 0.00 in   Clear
4:53 AM 64.9 °F 62.1 °F 90% 29.73 in 10.0 mi SSW 5.8 mph - 0.00 in   Overcast
5:32 AM 64.9 °F 62.1 °F 90% 29.73 in 10.0 mi SSW 6.9 mph - N/A   Mostly Cloudy
5:53 AM 64.9 °F 63.0 °F 93% 29.73 in 10.0 mi SSW 5.8 mph - N/A   Overcast
6:10 AM 64.9 °F 63.0 °F 93% 29.75 in 10.0 mi SW 8.1 mph - N/A   Overcast
6:30 AM 66.0 °F 64.0 °F 93% 29.75 in 10.0 mi SSW 8.1 mph - N/A   Overcast
6:53 AM 66.0 °F 64.0 °F 93% 29.75 in 10.0 mi SW 6.9 mph - N/A   Overcast
7:25 AM 66.9 °F 64.0 °F 90% 29.75 in 10.0 mi WSW 10.4 mph - N/A   Scattered Clouds
7:53 AM 66.9 °F 63.0 °F 87% 29.75 in 10.0 mi WSW 16.1 mph 21.9 mph N/A   Scattered Clouds
8:53 AM 68.0 °F 63.0 °F 84% 29.77 in 10.0 mi West 13.8 mph - N/A   Clear
9:53 AM 71.1 °F 61.0 °F 70% 29.78 in 10.0 mi WSW 11.5 mph - N/A   Partly Cloudy
10:53 AM 73.9 °F 62.1 °F 66% 29.78 in 10.0 mi West 18.4 mph 25.3 mph N/A   Mostly Cloudy
11:39 AM 73.0 °F 62.1 °F 68% 29.79 in 10.0 mi WSW 19.6 mph 28.8 mph 0.00 in Rain Light Rain
11:53 AM 71.1 °F 64.0 °F 78% 29.78 in 5.0 mi West 12.7 mph 21.9 mph 0.00 in Rain Rain
12:11 PM 70.0 °F 62.1 °F 76% 29.78 in 10.0 mi West 16.1 mph 25.3 mph 0.01 in   Scattered Clouds
12:53 PM 73.9 °F 60.1 °F 62% 29.76 in 10.0 mi West 18.4 mph 25.3 mph 0.01 in   Mostly Cloudy
1:53 PM 77.0 °F 59.0 °F 54% 29.74 in 10.0 mi West 20.7 mph - N/A   Mostly Cloudy
2:53 PM 77.0 °F 57.9 °F 52% 29.72 in 10.0 mi West 21.9 mph 32.2 mph N/A   Mostly Cloudy
3:53 PM 75.9 °F 57.9 °F 54% 29.71 in 10.0 mi West 21.9 mph 28.8 mph N/A   Mostly Cloudy
4:53 PM 73.9 °F 59.0 °F 59% 29.71 in 10.0 mi WSW 18.4 mph 32.2 mph N/A   Mostly Cloudy
5:53 PM 73.0 °F 55.9 °F 55% 29.70 in 10.0 mi West 18.4 mph 31.1 mph N/A   Clear
6:53 PM 70.0 °F 55.9 °F 61% 29.70 in 10.0 mi WSW 13.8 mph 21.9 mph N/A   Clear
7:53 PM 64.9 °F 55.9 °F 73% 29.73 in 10.0 mi WSW 15.0 mph - N/A   Clear
8:53 PM 63.0 °F 57.0 °F 81% 29.76 in 10.0 mi WSW 11.5 mph - N/A   Clear
9:53 PM 62.1 °F 57.0 °F 84% 29.78 in 10.0 mi WSW 11.5 mph - N/A   Clear
10:53 PM 61.0 °F 57.9 °F 90% 29.81 in 8.0 mi WSW 11.5 mph - N/A   Clear
11:53 PM 62.1 °F 57.9 °F 86% 29.83 in 8.0 mi West 16.1 mph - N/A   Scattered Clouds